Weather History for KTAD - October, 2013

Change the Weather History Date:

Tuesday, October 15, 2013

  Actual Average Record
Temperature  
Mean Temperature 40 °F 53 °F  
Max Temperature 45 °F 69 °F 83 °F (1965)
Min Temperature 35 °F 37 °F 21 °F (1966)
Degree Days  
Heating Degree Days 25 12  
Month to date heating degree days 145 150  
Since 1 July heating degree days 186 260  
Cooling Degree Days 0 0  
Month to date cooling degree days 0 0  
Year to date cooling degree days 1068 716  
Moisture  
Dew Point 26 °F    
Average Humidity 61    
Maximum Humidity 82    
Minimum Humidity 40    
Precipitation  
Precipitation 0.00 in 0.03 in 0.75 in (1960)
Month to date precipitation 0.06 0.40  
Year to date precipitation 9.50 12.10  
Sea Level Pressure  
Sea Level Pressure 30.18 in    
Wind  
Wind Speed 5 mph (ENE)    
Max Wind Speed 12 mph    
Max Gust Speed 14 mph    
Visibility 10 miles    
Events      
T = Trace of Precipitation, MM = Missing Value Source: NWS Daily Summary

Daily Weather History Graph

Daily Weather History Graph

Search for Another Location

Airport or City:

Trip Planner

Search our weather history database for the weather conditions in past years. The results will help you decide how hot, cold, wet, or windy it might be!

Date:

Astronomy

Oct. 15, 2013 Rise Set
Actual Time 7:05 AM MDT 6:19 PM MDT
Civil Twilight 6:39 AM MDT 6:46 PM MDT
Nautical Twilight 6:08 AM MDT 7:16 PM MDT
Astronomical Twilight 5:38 AM MDT 7:46 PM MDT
Moon 4:23 PM MDT (10/15) 3:35 AM MDT (10/15)
Length of Visible Light 12h 06m
Length of Day
11h 14m
Waxing Gibbous, 88% of the Moon is Illuminated
Oct 15
Waxing Gibbous
Oct 18
Full
Oct 26
Last Quarter
Nov 3
New
Nov 9
First Quarter

Hourly Weather History & Observations

Time (MDT) Temp. Windchill Dew Point Humidity Pressure Visibility Wind Dir Wind Speed Gust Speed Precip Events Conditions
12:54 AM 34.0 °F 31.0 °F 28.9 °F 82% 30.07 in 10.0 mi Variable 3.5 mph - N/A   Partly Cloudy
1:54 AM 36.0 °F 33.3 °F 30.9 °F 82% 30.07 in 10.0 mi SE 3.5 mph - N/A   Scattered Clouds
2:54 AM 36.0 °F 32.1 °F 28.9 °F 76% 30.09 in 10.0 mi SE 4.6 mph - N/A   Overcast
3:54 AM 36.0 °F - 28.9 °F 76% 30.09 in 10.0 mi Calm Calm - N/A   Overcast
4:54 AM 36.0 °F - 28.9 °F 76% 30.10 in 10.0 mi Calm Calm - N/A   Overcast
5:54 AM 37.0 °F - 28.9 °F 73% 30.12 in 10.0 mi Calm Calm - N/A   Overcast
6:54 AM 36.0 °F 31.1 °F 28.0 °F 73% 30.17 in 10.0 mi East 5.8 mph - N/A   Overcast
7:16 AM 35.6 °F 29.9 °F 28.4 °F 75% 30.24 in 10.0 mi ESE 6.9 mph - N/A   Overcast
7:54 AM 36.0 °F 29.6 °F 28.0 °F 73% 30.22 in 10.0 mi ESE 8.1 mph - N/A   Overcast
8:54 AM 36.0 °F 30.3 °F 26.1 °F 67% 30.25 in 10.0 mi East 6.9 mph - N/A   Overcast
9:18 AM 35.6 °F 29.2 °F 24.8 °F 65% 30.30 in 10.0 mi East 8.1 mph - N/A   Overcast
9:54 AM 37.0 °F 31.0 °F 25.0 °F 62% 30.27 in 10.0 mi ENE 8.1 mph - N/A   Overcast
10:54 AM 37.9 °F 33.5 °F 23.0 °F 55% 30.28 in 10.0 mi East 5.8 mph - N/A   Overcast
11:54 AM 39.9 °F 36.7 °F 21.9 °F 49% 30.26 in 10.0 mi Variable 4.6 mph - N/A   Overcast
12:54 PM 44.1 °F 38.6 °F 21.9 °F 42% 30.22 in 10.0 mi NE 10.4 mph - N/A   Overcast
1:54 PM 44.1 °F 39.0 °F 21.9 °F 42% 30.18 in 10.0 mi East 9.2 mph - N/A   Overcast
2:54 PM 44.1 °F - 21.9 °F 42% 30.16 in 10.0 mi Calm Calm - N/A   Overcast
3:54 PM 44.1 °F 39.5 °F 21.9 °F 42% 30.16 in 10.0 mi NE 8.1 mph - N/A   Overcast
4:54 PM 44.1 °F 40.1 °F 23.0 °F 43% 30.15 in 10.0 mi ENE 6.9 mph - N/A   Overcast
5:54 PM 43.0 °F 39.5 °F 23.0 °F 45% 30.16 in 10.0 mi NE 5.8 mph - N/A   Overcast
6:54 PM 43.0 °F 41.3 °F 23.0 °F 45% 30.17 in 10.0 mi NE 3.5 mph - N/A   Overcast
7:54 PM 43.0 °F - 23.0 °F 45% 30.18 in 10.0 mi Calm Calm - N/A   Overcast
8:54 PM 42.1 °F 40.2 °F 25.0 °F 51% 30.19 in 10.0 mi NE 3.5 mph - N/A   Overcast
9:54 PM 41.0 °F 35.8 °F 25.0 °F 53% 30.21 in 10.0 mi NE 8.1 mph - N/A   Overcast
10:54 PM 39.9 °F 35.8 °F 27.0 °F 60% 30.20 in 10.0 mi North 5.8 mph - N/A   Overcast
11:54 PM 37.9 °F 33.5 °F 27.0 °F 65% 30.20 in 10.0 mi ENE 5.8 mph - N/A   Overcast